Time,TemperatureF,DewpointF,PressureIn,WindDirection,WindDirectionDegrees,WindSpeedMPH,WindSpeedGustMPH,Humidity,HourlyPrecipIn,Conditions,Clouds,dailyrainin,SoftwareType,DateUTC
2013-06-27 00:01:00,68.7,67.0,29.73,North,9,2.0,3.0,94,0.00,,,0.00,weatherlink.com 1.10,2013-06-27 04:01:00,
2013-06-27 00:16:00,68.5,67.0,29.72,North,9,1.0,2.0,94,0.00,,,0.00,weatherlink.com 1.10,2013-06-27 04:16:00,
2013-06-27 00:31:00,68.1,66.0,29.73,North,355,0.0,3.0,94,0.00,,,0.00,weatherlink.com 1.10,2013-06-27 04:31:00,
2013-06-27 00:46:00,67.9,66.0,29.73,North,355,0.0,2.0,94,0.00,,,0.00,weatherlink.com 1.10,2013-06-27 04:46:00,
2013-06-27 01:01:00,67.6,66.0,29.73,NNE,27,0.0,3.0,94,0.00,,,0.00,weatherlink.com 1.10,2013-06-27 05:01:00,
2013-06-27 01:16:00,67.2,66.0,29.73,NNW,331,1.0,2.0,94,0.00,,,0.00,weatherlink.com 1.10,2013-06-27 05:16:00,
2013-06-27 01:31:00,66.9,65.0,29.73,NNE,22,1.0,3.0,94,0.00,,,0.00,weatherlink.com 1.10,2013-06-27 05:31:00,
2013-06-27 01:46:00,66.7,65.0,29.73,NNE,22,0.0,2.0,94,0.00,,,0.00,weatherlink.com 1.10,2013-06-27 05:46:00,
2013-06-27 02:01:00,66.5,65.0,29.73,NNE,22,0.0,1.0,95,0.00,,,0.00,weatherlink.com 1.10,2013-06-27 06:01:00,
2013-06-27 02:16:00,66.3,65.0,29.72,NNW,333,2.0,3.0,94,0.00,,,0.00,weatherlink.com 1.10,2013-06-27 06:16:00,
2013-06-27 02:31:00,65.9,64.0,29.71,North,355,1.0,3.0,94,0.00,,,0.00,weatherlink.com 1.10,2013-06-27 06:31:00,
2013-06-27 02:46:00,65.7,64.0,29.70,NNE,30,1.0,4.0,94,0.00,,,0.00,weatherlink.com 1.10,2013-06-27 06:46:00,
2013-06-27 03:01:00,65.6,64.0,29.70,NE,37,0.0,4.0,95,0.00,,,0.00,weatherlink.com 1.10,2013-06-27 07:01:00,
2013-06-27 03:16:00,65.5,64.0,29.71,NE,37,2.0,3.0,95,0.00,,,0.00,weatherlink.com 1.10,2013-06-27 07:16:00,
2013-06-27 03:31:00,65.3,64.0,29.71,NNE,22,0.0,4.0,95,0.00,,,0.00,weatherlink.com 1.10,2013-06-27 07:31:00,
2013-06-27 03:46:00,65.1,63.0,29.71,North,9,1.0,4.0,94,0.00,,,0.00,weatherlink.com 1.10,2013-06-27 07:46:00,
2013-06-27 04:01:00,64.9,64.0,29.70,NW,321,1.0,5.0,95,0.00,,,0.00,weatherlink.com 1.10,2013-06-27 08:01:00,
2013-06-27 04:16:00,64.7,63.0,29.70,SSW,204,2.0,4.0,95,0.00,,,0.00,weatherlink.com 1.10,2013-06-27 08:16:00,
2013-06-27 04:31:00,64.5,63.0,29.71,NNE,15,0.0,4.0,94,0.00,,,0.00,weatherlink.com 1.10,2013-06-27 08:31:00,
2013-06-27 04:46:00,64.4,63.0,29.71,North,355,5.0,7.0,94,0.01,,,0.01,weatherlink.com 1.10,2013-06-27 08:46:00,
2013-06-27 05:01:00,64.2,63.0,29.71,ENE,61,3.0,5.0,94,0.01,,,0.01,weatherlink.com 1.10,2013-06-27 09:01:00,
2013-06-27 05:16:00,64.0,63.0,29.72,NNE,17,3.0,4.0,95,0.01,,,0.01,weatherlink.com 1.10,2013-06-27 09:16:00,
2013-06-27 05:31:00,63.9,63.0,29.73,North,5,3.0,3.0,95,0.01,,,0.01,weatherlink.com 1.10,2013-06-27 09:31:00,
2013-06-27 05:46:00,63.8,62.0,29.73,NNW,331,3.0,6.0,94,0.00,,,0.01,weatherlink.com 1.10,2013-06-27 09:46:00,
2013-06-27 06:01:00,63.5,62.0,29.72,NNE,22,2.0,5.0,94,0.00,,,0.01,weatherlink.com 1.10,2013-06-27 10:01:00,
2013-06-27 06:16:00,63.3,62.0,29.74,NE,49,0.0,4.0,94,0.00,,,0.01,weatherlink.com 1.10,2013-06-27 10:16:00,
2013-06-27 06:31:00,63.3,62.0,29.75,SE,136,2.0,2.0,95,0.00,,,0.01,weatherlink.com 1.10,2013-06-27 10:31:00,
2013-06-27 06:46:00,63.3,62.0,29.75,SW,215,0.0,3.0,96,0.00,,,0.01,weatherlink.com 1.10,2013-06-27 10:46:00,
2013-06-27 07:01:00,63.2,62.0,29.75,East,80,0.0,5.0,96,0.00,,,0.01,weatherlink.com 1.10,2013-06-27 11:01:00,
2013-06-27 07:17:00,63.1,62.0,29.75,WSW,244,1.0,3.0,96,0.00,,,0.01,weatherlink.com 1.10,2013-06-27 11:17:00,
2013-06-27 07:32:00,63.4,62.0,29.75,North,5,0.0,3.0,96,0.00,,,0.01,weatherlink.com 1.10,2013-06-27 11:32:00,
2013-06-27 07:47:00,63.4,62.0,29.75,NNW,342,2.0,3.0,95,0.00,,,0.01,weatherlink.com 1.10,2013-06-27 11:47:00,
2013-06-27 08:02:00,63.6,62.0,29.74,South,185,2.0,3.0,95,0.00,,,0.01,weatherlink.com 1.10,2013-06-27 12:02:00,
2013-06-27 08:17:00,64.0,62.0,29.74,NNE,32,0.0,3.0,94,0.00,,,0.01,weatherlink.com 1.10,2013-06-27 12:17:00,
2013-06-27 08:32:00,64.4,63.0,29.74,SW,221,2.0,2.0,94,0.00,,,0.01,weatherlink.com 1.10,2013-06-27 12:32:00,
2013-06-27 08:47:00,64.7,63.0,29.74,South,190,0.0,2.0,94,0.00,,,0.01,weatherlink.com 1.10,2013-06-27 12:47:00,
2013-06-27 09:02:00,65.4,63.0,29.73,NNE,28,2.0,3.0,93,0.00,,,0.01,weatherlink.com 1.10,2013-06-27 13:02:00,
2013-06-27 09:17:00,66.1,64.0,29.73,North,355,1.0,3.0,93,0.00,,,0.01,weatherlink.com 1.10,2013-06-27 13:17:00,
2013-06-27 09:32:00,66.5,64.0,29.73,NNE,12,0.0,3.0,92,0.00,,,0.01,weatherlink.com 1.10,2013-06-27 13:32:00,
2013-06-27 09:47:00,66.8,64.0,29.73,ESE,123,1.0,2.0,91,0.00,,,0.01,weatherlink.com 1.10,2013-06-27 13:47:00,
2013-06-27 10:02:00,67.2,65.0,29.73,SE,129,0.0,3.0,91,0.00,,,0.01,weatherlink.com 1.10,2013-06-27 14:02:00,
2013-06-27 10:17:00,67.6,65.0,29.73,West,262,0.0,3.0,91,0.00,,,0.01,weatherlink.com 1.10,2013-06-27 14:17:00,
2013-06-27 10:32:00,67.6,65.0,29.73,SSW,213,0.0,3.0,90,0.00,,,0.01,weatherlink.com 1.10,2013-06-27 14:32:00,
2013-06-27 10:47:00,68.1,65.0,29.73,NE,44,0.0,1.0,91,0.00,,,0.01,weatherlink.com 1.10,2013-06-27 14:47:00,
2013-06-27 11:02:00,68.5,66.0,29.72,NNW,344,0.0,3.0,91,0.00,,,0.01,weatherlink.com 1.10,2013-06-27 15:02:00,
2013-06-27 11:18:00,68.9,66.0,29.72,NE,40,0.0,3.0,89,0.00,,,0.01,weatherlink.com 1.10,2013-06-27 15:18:00,
2013-06-27 11:32:00,69.6,66.0,29.72,NNE,19,2.0,4.0,89,0.00,,,0.01,weatherlink.com 1.10,2013-06-27 15:32:00,
2013-06-27 12:02:00,70.0,66.0,29.72,SW,223,0.0,3.0,87,0.00,,,0.01,weatherlink.com 1.10,2013-06-27 16:02:00,
2013-06-27 12:17:00,70.1,67.0,29.72,North,351,1.0,3.0,88,0.00,,,0.01,weatherlink.com 1.10,2013-06-27 16:17:00,
2013-06-27 12:32:00,70.8,67.0,29.71,North,5,2.0,3.0,88,0.00,,,0.01,weatherlink.com 1.10,2013-06-27 16:32:00,
2013-06-27 12:47:00,71.1,67.0,29.71,North,9,2.0,4.0,87,0.00,,,0.01,weatherlink.com 1.10,2013-06-27 16:47:00,
2013-06-27 13:02:00,71.2,67.0,29.71,North,355,3.0,4.0,86,0.00,,,0.01,weatherlink.com 1.10,2013-06-27 17:02:00,
2013-06-27 13:17:00,70.9,67.0,29.70,North,5,3.0,5.0,87,0.00,,,0.01,weatherlink.com 1.10,2013-06-27 17:17:00,
2013-06-27 13:32:00,71.1,67.0,29.70,North,9,0.0,5.0,88,0.00,,,0.01,weatherlink.com 1.10,2013-06-27 17:32:00,
2013-06-27 13:47:00,71.5,68.0,29.70,NE,42,1.0,4.0,87,0.00,,,0.01,weatherlink.com 1.10,2013-06-27 17:47:00,
2013-06-27 14:02:00,71.8,68.0,29.70,West,276,1.0,3.0,86,0.00,,,0.01,weatherlink.com 1.10,2013-06-27 18:02:00,
2013-06-27 14:17:00,71.6,68.0,29.70,North,355,3.0,4.0,87,0.00,,,0.01,weatherlink.com 1.10,2013-06-27 18:17:00,
2013-06-27 14:32:00,71.4,67.0,29.70,North,5,2.0,3.0,87,0.00,,,0.01,weatherlink.com 1.10,2013-06-27 18:32:00,
2013-06-27 14:47:00,71.5,68.0,29.70,North,9,3.0,5.0,87,0.00,,,0.01,weatherlink.com 1.10,2013-06-27 18:47:00,
2013-06-27 15:02:00,71.3,68.0,29.70,ENE,61,4.0,6.0,88,0.01,,,0.02,weatherlink.com 1.10,2013-06-27 19:02:00,
2013-06-27 15:17:00,71.1,68.0,29.69,NE,35,0.0,4.0,89,0.01,,,0.02,weatherlink.com 1.10,2013-06-27 19:17:00,
2013-06-27 15:32:00,71.0,67.0,29.68,NNE,16,1.0,5.0,88,0.01,,,0.02,weatherlink.com 1.10,2013-06-27 19:32:00,
2013-06-27 15:47:00,71.0,68.0,29.68,NNE,12,2.0,5.0,89,0.01,,,0.02,weatherlink.com 1.10,2013-06-27 19:47:00,
2013-06-27 16:02:00,70.7,68.0,29.68,NNE,30,4.0,5.0,91,0.00,,,0.02,weatherlink.com 1.10,2013-06-27 20:02:00,
2013-06-27 16:17:00,70.4,68.0,29.69,ENE,65,0.0,4.0,91,0.00,,,0.02,weatherlink.com 1.10,2013-06-27 20:17:00,
2013-06-27 16:32:00,70.3,68.0,29.68,NNE,29,2.0,4.0,91,0.00,,,0.02,weatherlink.com 1.10,2013-06-27 20:32:00,
2013-06-27 17:02:00,69.8,67.0,29.68,NNE,29,2.0,6.0,91,0.00,,,0.02,weatherlink.com 1.10,2013-06-27 21:02:00,
2013-06-27 17:32:00,69.1,66.0,29.67,SW,230,2.0,6.0,91,0.00,,,0.02,weatherlink.com 1.10,2013-06-27 21:32:00,
2013-06-27 17:47:00,68.8,66.0,29.67,NNE,13,0.0,4.0,92,0.00,,,0.02,weatherlink.com 1.10,2013-06-27 21:47:00,
2013-06-27 18:02:00,68.4,66.0,29.67,WSW,258,1.0,3.0,92,0.00,,,0.02,weatherlink.com 1.10,2013-06-27 22:02:00,
2013-06-27 18:17:00,67.8,65.0,29.67,WSW,248,0.0,2.0,91,0.00,,,0.02,weatherlink.com 1.10,2013-06-27 22:17:00,
2013-06-27 18:32:00,67.4,65.0,29.68,SW,225,1.0,2.0,93,0.00,,,0.02,weatherlink.com 1.10,2013-06-27 22:32:00,
2013-06-27 19:02:00,66.6,65.0,29.67,North,355,0.0,3.0,93,0.00,,,0.02,weatherlink.com 1.10,2013-06-27 23:02:00,
2013-06-27 19:17:00,66.6,65.0,29.67,North,355,0.0,3.0,94,0.00,,,0.02,weatherlink.com 1.10,2013-06-27 23:17:00,
2013-06-27 19:32:00,66.3,64.0,29.67,North,5,2.0,3.0,93,0.00,,,0.02,weatherlink.com 1.10,2013-06-27 23:32:00,
2013-06-27 19:47:00,66.1,64.0,29.67,North,355,2.0,2.0,93,0.00,,,0.02,weatherlink.com 1.10,2013-06-27 23:47:00,
2013-06-27 20:02:00,66.0,64.0,29.68,North,355,0.0,3.0,94,0.00,,,0.02,weatherlink.com 1.10,2013-06-28 00:02:00,
2013-06-27 20:17:00,65.8,64.0,29.68,West,266,0.0,2.0,94,0.00,,,0.02,weatherlink.com 1.10,2013-06-28 00:17:00,
2013-06-27 20:32:00,65.6,64.0,29.68,North,355,0.0,2.0,94,0.00,,,0.02,weatherlink.com 1.10,2013-06-28 00:32:00,
2013-06-27 20:47:00,65.4,64.0,29.68,North,5,2.0,2.0,94,0.00,,,0.02,weatherlink.com 1.10,2013-06-28 00:47:00,
2013-06-27 21:17:00,65.2,64.0,29.68,North,355,1.0,4.0,94,0.00,,,0.02,weatherlink.com 1.10,2013-06-28 01:17:00,
2013-06-27 21:32:00,65.1,63.0,29.69,NNW,336,2.0,3.0,94,0.00,,,0.02,weatherlink.com 1.10,2013-06-28 01:32:00,
2013-06-27 22:02:00,65.0,64.0,29.69,NNW,330,2.0,4.0,95,0.00,,,0.02,weatherlink.com 1.10,2013-06-28 02:02:00,
2013-06-27 22:17:00,64.8,63.0,29.68,NNE,29,1.0,2.0,95,0.00,,,0.02,weatherlink.com 1.10,2013-06-28 02:17:00,
2013-06-27 22:32:00,64.7,63.0,29.68,North,355,2.0,4.0,95,0.00,,,0.02,weatherlink.com 1.10,2013-06-28 02:32:00,
2013-06-27 23:02:00,64.3,63.0,29.67,NE,51,4.0,5.0,95,0.00,,,0.02,weatherlink.com 1.10,2013-06-28 03:02:00,
2013-06-27 23:17:00,64.1,63.0,29.66,North,5,1.0,7.0,95,0.00,,,0.02,weatherlink.com 1.10,2013-06-28 03:17:00,
2013-06-27 23:32:00,64.0,63.0,29.66,NE,46,2.0,6.0,95,0.00,,,0.02,weatherlink.com 1.10,2013-06-28 03:32:00,
2013-06-27 23:47:00,63.9,63.0,29.65,North,5,3.0,8.0,95,0.00,,,0.02,weatherlink.com 1.10,2013-06-28 03:47:00,